FDX1621 KEWR-KIND

Flight info

Callsign FDX1621
Flight time 1h 31m
Altitude 34000
Route ZIMMZ Q42 HIDON RINTE SNKPT2
Aircraft B738/M-SDE2E3FGHIRWXY/LB1

Departure

Time 2026-04-24 21:36
Airport Newark Liberty International Airport (KEWR)

Arrival

Time 2026-04-24 23:07
Airport Indianapolis International Airport (KIND)
Time Latitude Longitude Altitude Speed Heading
2026-04-24 21:03 40.67711 -74.18468 21 ft 0 kts 206°
2026-04-24 21:28 40.67721 -74.18462 21 ft 4 kts 206°
2026-04-24 21:28 40.67745 -74.18446 21 ft 4 kts 206°
2026-04-24 21:28 40.67764 -74.18435 23 ft 4 kts 184°
2026-04-24 21:28 40.67782 -74.18444 24 ft 4 kts 116°
2026-04-24 21:29 40.67792 -74.18470 23 ft 1 kts 115°
2026-04-24 21:32 40.67791 -74.18469 23 ft 1 kts 115°
2026-04-24 21:32 40.67777 -74.18429 22 ft 7 kts 112°
2026-04-24 21:32 40.67758 -74.18360 21 ft 9 kts 108°
2026-04-24 21:33 40.67733 -74.18283 21 ft 10 kts 116°
2026-04-24 21:33 40.67704 -74.18205 21 ft 8 kts 117°
2026-04-24 21:33 40.67673 -74.18140 21 ft 9 kts 138°
2026-04-24 21:33 40.67625 -74.18085 21 ft 7 kts 131°
2026-04-24 21:34 40.67605 -74.18055 23 ft 0 kts 130°
2026-04-24 21:34 40.67601 -74.18048 22 ft 2 kts 130°
2026-04-24 21:34 40.67584 -74.18020 21 ft 7 kts 128°
2026-04-24 21:34 40.67568 -74.17944 22 ft 11 kts 72°
2026-04-24 21:35 40.67615 -74.17893 21 ft 3 kts 25°
2026-04-24 21:35 40.67667 -74.17860 22 ft 35 kts 26°
2026-04-24 21:35 40.68166 -74.17543 20 ft 122 kts 26°
2026-04-24 21:35 40.69147 -74.16930 172 ft 179 kts 29°
2026-04-24 21:36 40.70241 -74.16205 1255 ft 170 kts 28°
2026-04-24 21:36 40.71308 -74.15526 2292 ft 176 kts 26°
2026-04-24 21:36 40.72510 -74.14801 2704 ft 206 kts 14°
2026-04-24 21:36 40.73986 -74.14838 2967 ft 228 kts 340°
2026-04-24 21:37 40.75328 -74.16055 3392 ft 249 kts 308°
2026-04-24 21:37 40.76093 -74.18110 4255 ft 252 kts 284°
2026-04-24 21:37 40.76346 -74.20416 5293 ft 251 kts 275°
2026-04-24 21:37 40.76456 -74.22693 6239 ft 253 kts 274°
2026-04-24 21:38 40.76542 -74.25003 7168 ft 252 kts 275°
2026-04-24 21:38 40.76626 -74.27313 8103 ft 251 kts 277°
2026-04-24 21:38 40.76715 -74.29598 9087 ft 249 kts 278°
2026-04-24 21:38 40.76807 -74.31881 10051 ft 248 kts 279°
2026-04-24 21:39 40.76907 -74.34184 10694 ft 257 kts 279°
2026-04-24 21:39 40.77017 -74.36601 11117 ft 274 kts 279°
2026-04-24 21:39 40.77143 -74.39235 11180 ft 302 kts 279°
2026-04-24 21:39 40.77274 -74.42059 11188 ft 311 kts 278°
2026-04-24 21:40 40.77402 -74.44949 11567 ft 318 kts 278°
2026-04-24 21:40 40.77530 -74.47863 12390 ft 318 kts 278°
2026-04-24 21:40 40.77658 -74.50775 13240 ft 319 kts 278°
2026-04-24 21:40 40.77791 -74.53725 13914 ft 325 kts 278°
2026-04-24 21:41 40.77925 -74.56720 14610 ft 328 kts 278°
2026-04-24 21:41 40.78059 -74.59728 15355 ft 329 kts 278°
2026-04-24 21:41 40.78193 -74.62756 16088 ft 332 kts 278°
2026-04-24 21:41 40.78329 -74.65814 16758 ft 335 kts 278°
2026-04-24 21:42 40.78466 -74.68902 17437 ft 338 kts 278°
2026-04-24 21:42 40.78603 -74.72023 18087 ft 342 kts 278°
2026-04-24 21:42 40.78740 -74.75174 18647 ft 346 kts 278°
2026-04-24 21:42 40.78877 -74.78315 19217 ft 349 kts 278°
2026-04-24 21:43 40.79016 -74.81533 19719 ft 353 kts 278°
2026-04-24 21:43 40.79155 -74.84785 20333 ft 355 kts 278°
2026-04-24 21:43 40.79294 -74.88043 20906 ft 358 kts 278°
2026-04-24 21:43 40.79433 -74.91338 21426 ft 361 kts 278°
2026-04-24 21:44 40.79573 -74.94672 21952 ft 365 kts 278°
2026-04-24 21:44 40.79713 -74.98033 22462 ft 369 kts 278°
2026-04-24 21:44 40.79853 -75.01426 22977 ft 372 kts 278°
2026-04-24 21:44 40.79995 -75.04857 23462 ft 375 kts 278°
2026-04-24 21:45 40.80137 -75.08310 23837 ft 379 kts 278°
2026-04-24 21:45 40.80226 -75.11809 24192 ft 385 kts 274°
2026-04-24 21:45 40.79942 -75.15362 24611 ft 394 kts 265°
2026-04-24 21:45 40.79401 -75.18923 25071 ft 396 kts 265°
2026-04-24 21:46 40.78851 -75.22489 25463 ft 399 kts 265°
2026-04-24 21:46 40.78310 -75.26051 25839 ft 401 kts 265°
2026-04-24 21:46 40.77771 -75.29677 26233 ft 404 kts 266°
2026-04-24 21:46 40.77234 -75.33324 26627 ft 406 kts 266°
2026-04-24 21:47 40.76662 -75.36988 27004 ft 411 kts 263°
2026-04-24 21:47 40.76090 -75.39449 27236 ft 419 kts 257°
2026-04-24 21:47 40.74441 -75.44133 27664 ft 429 kts 251°
2026-04-24 21:47 40.73098 -75.47663 27980 ft 432 kts 251°
2026-04-24 21:48 40.71743 -75.51218 28298 ft 435 kts 251°
2026-04-24 21:48 40.70388 -75.54795 28637 ft 437 kts 252°
2026-04-24 21:48 40.69036 -75.58395 28941 ft 440 kts 252°
2026-04-24 21:48 40.67676 -75.62031 29231 ft 443 kts 252°
2026-04-24 21:49 40.66439 -75.65344 29524 ft 445 kts 252°
2026-04-24 21:49 40.65078 -75.68979 29802 ft 435 kts 252°
2026-04-24 21:49 40.63757 -75.72462 30015 ft 414 kts 252°
2026-04-24 21:49 40.62491 -75.75771 30138 ft 399 kts 253°
2026-04-24 21:50 40.61274 -75.79060 30101 ft 401 kts 253°
2026-04-24 21:50 40.58775 -75.85797 30225 ft 418 kts 252°
2026-04-24 21:51 40.56140 -75.92728 30357 ft 434 kts 252°
2026-04-24 21:51 40.53384 -75.99926 30467 ft 447 kts 251°
2026-04-24 21:51 40.51975 -76.03597 30598 ft 452 kts 251°
2026-04-24 21:52 40.50557 -76.07288 30863 ft 452 kts 251°
2026-04-24 21:52 40.49141 -76.10966 31240 ft 449 kts 251°
2026-04-24 21:52 40.47735 -76.14614 31622 ft 446 kts 251°
2026-04-24 21:52 40.46334 -76.18252 31966 ft 445 kts 251°
2026-04-24 21:53 40.44934 -76.21892 32219 ft 446 kts 251°
2026-04-24 21:53 40.43533 -76.25534 32500 ft 446 kts 251°
2026-04-24 21:53 40.42135 -76.29158 32845 ft 444 kts 251°
2026-04-24 21:53 40.40760 -76.32718 33215 ft 442 kts 251°
2026-04-24 21:54 40.39371 -76.36313 33541 ft 441 kts 251°
2026-04-24 21:54 40.37983 -76.39903 33840 ft 441 kts 251°
2026-04-24 21:54 40.36594 -76.43487 34119 ft 440 kts 251°
2026-04-24 21:54 40.35211 -76.47066 34415 ft 437 kts 252°
2026-04-24 21:55 40.34092 -76.50715 34644 ft 427 kts 261°
2026-04-24 21:55 40.33437 -76.54462 34854 ft 420 kts 266°
2026-04-24 21:55 40.32899 -76.58209 35078 ft 419 kts 266°
2026-04-24 21:55 40.32364 -76.61967 35323 ft 418 kts 266°
2026-04-24 21:56 40.31825 -76.65707 35568 ft 417 kts 266°
2026-04-24 21:56 40.31279 -76.69435 35819 ft 416 kts 266°
2026-04-24 21:56 40.30726 -76.73156 36049 ft 416 kts 266°
2026-04-24 21:56 40.30169 -76.76869 36303 ft 415 kts 266°
2026-04-24 21:57 40.29609 -76.80568 36581 ft 414 kts 266°
2026-04-24 21:57 40.29049 -76.84257 36857 ft 412 kts 266°
2026-04-24 21:57 40.28487 -76.87943 37020 ft 412 kts 265°
2026-04-24 21:58 40.27359 -76.95342 37204 ft 415 kts 265°
2026-04-24 21:58 40.26799 -76.98993 37441 ft 414 kts 265°
2026-04-24 21:58 40.26232 -77.02675 37689 ft 412 kts 265°
2026-04-24 21:58 40.25666 -77.06346 37843 ft 412 kts 265°
2026-04-24 21:59 40.25098 -77.10038 37825 ft 415 kts 265°
2026-04-24 21:59 40.23954 -77.17429 37829 ft 413 kts 265°
2026-04-24 22:00 40.22814 -77.24746 37814 ft 410 kts 266°
2026-04-24 22:00 40.21860 -77.30853 37825 ft 408 kts 266°
2026-04-24 22:01 40.20729 -77.38070 37819 ft 406 kts 266°
2026-04-24 22:01 40.19591 -77.45305 37831 ft 406 kts 266°
2026-04-24 22:02 40.18448 -77.52541 37828 ft 407 kts 266°
2026-04-24 22:02 40.17296 -77.59804 37795 ft 409 kts 266°
2026-04-24 22:03 40.16131 -77.67113 37802 ft 413 kts 266°
2026-04-24 22:03 40.14950 -77.74495 37809 ft 416 kts 266°
2026-04-24 22:04 40.13765 -77.81926 37810 ft 418 kts 268°
2026-04-24 22:04 40.13488 -77.89375 37830 ft 408 kts 278°
2026-04-24 22:05 40.13620 -77.96769 37805 ft 411 kts 278°
2026-04-24 22:05 40.13731 -78.04206 37829 ft 412 kts 278°
2026-04-24 22:06 40.13817 -78.11673 37834 ft 412 kts 278°
2026-04-24 22:06 40.13890 -78.19127 37843 ft 412 kts 278°
2026-04-24 22:07 40.13957 -78.26613 37844 ft 412 kts 278°
2026-04-24 22:07 40.14020 -78.34128 37820 ft 410 kts 278°
2026-04-24 22:08 40.14080 -78.41571 37831 ft 415 kts 277°
2026-04-24 22:08 40.14137 -78.49141 37815 ft 420 kts 277°
2026-04-24 22:09 40.14187 -78.56805 37821 ft 423 kts 277°
2026-04-24 22:09 40.14231 -78.64494 37831 ft 424 kts 277°
2026-04-24 22:10 40.14270 -78.72217 37818 ft 424 kts 277°
2026-04-24 22:10 40.14304 -78.79931 37850 ft 425 kts 277°
2026-04-24 22:11 40.14335 -78.87654 37857 ft 425 kts 277°
2026-04-24 22:11 40.14358 -78.95321 37851 ft 424 kts 277°
2026-04-24 22:12 40.14378 -79.03023 37848 ft 423 kts 277°
2026-04-24 22:12 40.14394 -79.10707 37833 ft 422 kts 276°
2026-04-24 22:13 40.14429 -79.18373 37846 ft 421 kts 277°
2026-04-24 22:13 40.14609 -79.26017 37847 ft 421 kts 278°
2026-04-24 22:14 40.14812 -79.33660 37845 ft 421 kts 278°
2026-04-24 22:14 40.14997 -79.41296 37859 ft 420 kts 278°
2026-04-24 22:15 40.15168 -79.48948 37845 ft 420 kts 277°
2026-04-24 22:15 40.15329 -79.56594 37848 ft 420 kts 277°
2026-04-24 22:16 40.15485 -79.64231 37844 ft 420 kts 277°
2026-04-24 22:16 40.15636 -79.71874 37838 ft 421 kts 277°
2026-04-24 22:17 40.15783 -79.79529 37835 ft 422 kts 277°
2026-04-24 22:17 40.15925 -79.87199 37827 ft 422 kts 276°
2026-04-24 22:18 40.16060 -79.94818 37839 ft 423 kts 276°
2026-04-24 22:18 40.16193 -80.02519 37862 ft 424 kts 276°
2026-04-24 22:19 40.16320 -80.10241 37866 ft 425 kts 276°
2026-04-24 22:19 40.16443 -80.17997 37851 ft 426 kts 276°
2026-04-24 22:20 40.16560 -80.25752 37856 ft 426 kts 275°
2026-04-24 22:20 40.16672 -80.33503 37861 ft 426 kts 275°
2026-04-24 22:21 40.16779 -80.41200 37859 ft 426 kts 275°
2026-04-24 22:21 40.16881 -80.48945 37848 ft 426 kts 275°
2026-04-24 22:22 40.16977 -80.56686 37830 ft 425 kts 275°
2026-04-24 22:22 40.17069 -80.64412 37834 ft 425 kts 275°
2026-04-24 22:23 40.17155 -80.72134 37846 ft 424 kts 275°
2026-04-24 22:23 40.17237 -80.79839 37840 ft 424 kts 275°
2026-04-24 22:24 40.17312 -80.87541 37827 ft 423 kts 275°
2026-04-24 22:24 40.17384 -80.95229 37831 ft 422 kts 274°
2026-04-24 22:25 40.17389 -81.02911 37821 ft 423 kts 273°
2026-04-24 22:25 40.17303 -81.10543 37822 ft 422 kts 272°
2026-04-24 22:26 40.17216 -81.18224 37816 ft 422 kts 273°
2026-04-24 22:26 40.17134 -81.25903 37812 ft 422 kts 273°
2026-04-24 22:27 40.17052 -81.33581 37811 ft 422 kts 272°
2026-04-24 22:27 40.16966 -81.41257 37816 ft 422 kts 272°
2026-04-24 22:28 40.16873 -81.48947 37819 ft 423 kts 272°
2026-04-24 22:28 40.16777 -81.56640 37807 ft 423 kts 272°
2026-04-24 22:29 40.16923 -81.68169 37817 ft 422 kts 277°
2026-04-24 22:29 40.17425 -81.75813 37819 ft 423 kts 278°
2026-04-24 22:30 40.17931 -81.83480 37815 ft 423 kts 277°
2026-04-24 22:30 40.18397 -81.91119 37814 ft 424 kts 277°
2026-04-24 22:31 40.18847 -81.98855 37815 ft 424 kts 277°
2026-04-24 22:31 40.19282 -82.06515 37810 ft 425 kts 277°
2026-04-24 22:32 40.19717 -82.14263 37808 ft 425 kts 277°
2026-04-24 22:32 40.20143 -82.21926 37807 ft 425 kts 277°
2026-04-24 22:33 40.20569 -82.29680 37808 ft 424 kts 277°
2026-04-24 22:33 40.20985 -82.37338 37808 ft 424 kts 277°
2026-04-24 22:34 40.21398 -82.45032 37812 ft 424 kts 275°
2026-04-24 22:34 40.21804 -82.52716 37802 ft 423 kts 275°
2026-04-24 22:35 40.22205 -82.60398 37804 ft 422 kts 275°
2026-04-24 22:35 40.22601 -82.68072 37806 ft 422 kts 275°
2026-04-24 22:36 40.22991 -82.75726 37800 ft 422 kts 275°
2026-04-24 22:36 40.23378 -82.83426 37804 ft 421 kts 274°
2026-04-24 22:37 40.23756 -82.91042 37796 ft 421 kts 274°
2026-04-24 22:37 40.24128 -82.98648 37798 ft 421 kts 274°
2026-04-24 22:38 40.24497 -83.06291 37796 ft 421 kts 274°
2026-04-24 22:38 40.24861 -83.13939 37795 ft 420 kts 274°
2026-04-24 22:39 40.25220 -83.21571 37801 ft 419 kts 274°
2026-04-24 22:39 40.25572 -83.29184 37791 ft 418 kts 274°
2026-04-24 22:40 40.25919 -83.36778 37801 ft 417 kts 274°
2026-04-24 22:40 40.26260 -83.44372 37799 ft 417 kts 273°
2026-04-24 22:41 40.26596 -83.51948 37808 ft 417 kts 273°
2026-04-24 22:41 40.26871 -83.58227 37817 ft 415 kts 273°
2026-04-24 22:42 40.27250 -83.67034 37807 ft 414 kts 273°
2026-04-24 22:42 40.27568 -83.74547 37811 ft 413 kts 273°
2026-04-24 22:43 40.27881 -83.82045 37813 ft 412 kts 272°
2026-04-24 22:43 40.28186 -83.89482 37815 ft 411 kts 272°
2026-04-24 22:44 40.28490 -83.96980 37801 ft 411 kts 272°
2026-04-24 22:44 40.28783 -84.04454 37802 ft 411 kts 270°
2026-04-24 22:45 40.28657 -84.11955 37704 ft 413 kts 266°
2026-04-24 22:45 40.28550 -84.14469 37313 ft 419 kts 266°
2026-04-24 22:45 40.28382 -84.18277 36781 ft 418 kts 266°
2026-04-24 22:46 40.28222 -84.22069 36220 ft 416 kts 266°
2026-04-24 22:46 40.28073 -84.25857 35601 ft 417 kts 266°
2026-04-24 22:46 40.27932 -84.29654 34949 ft 418 kts 266°
2026-04-24 22:46 40.27797 -84.33469 34264 ft 420 kts 266°
2026-04-24 22:47 40.27661 -84.37310 33516 ft 424 kts 266°
2026-04-24 22:47 40.27525 -84.41185 32751 ft 426 kts 266°
2026-04-24 22:47 40.27389 -84.45020 32018 ft 428 kts 266°
2026-04-24 22:47 40.27249 -84.48919 31266 ft 430 kts 266°
2026-04-24 22:48 40.27107 -84.52836 30501 ft 432 kts 266°
2026-04-24 22:48 40.26962 -84.56786 29649 ft 435 kts 266°
2026-04-24 22:48 40.26815 -84.60757 28704 ft 438 kts 266°
2026-04-24 22:48 40.26667 -84.64745 27789 ft 439 kts 266°
2026-04-24 22:49 40.26517 -84.68743 26859 ft 441 kts 265°
2026-04-24 22:49 40.26365 -84.72757 25832 ft 445 kts 265°
2026-04-24 22:49 40.26214 -84.76811 25037 ft 444 kts 265°
2026-04-24 22:49 40.26064 -84.80838 24310 ft 441 kts 265°
2026-04-24 22:50 40.25915 -84.84838 23632 ft 438 kts 265°
2026-04-24 22:50 40.25765 -84.88817 22870 ft 435 kts 265°
2026-04-24 22:50 40.25615 -84.92756 22144 ft 431 kts 265°
2026-04-24 22:50 40.25465 -84.96655 21467 ft 426 kts 265°
2026-04-24 22:51 40.25316 -85.00507 20795 ft 422 kts 265°
2026-04-24 22:51 40.25166 -85.04323 20139 ft 418 kts 265°
2026-04-24 22:51 40.25018 -85.08050 19510 ft 414 kts 264°
2026-04-24 22:51 40.24868 -85.11843 18857 ft 410 kts 264°
2026-04-24 22:52 40.24718 -85.15556 18204 ft 407 kts 264°
2026-04-24 22:52 40.24568 -85.19246 17459 ft 405 kts 264°
2026-04-24 22:52 40.24418 -85.22895 16891 ft 398 kts 264°
2026-04-24 22:52 40.24268 -85.26493 16260 ft 394 kts 264°
2026-04-24 22:53 40.24120 -85.30045 15630 ft 390 kts 264°
2026-04-24 22:53 40.23971 -85.33579 15038 ft 386 kts 264°
2026-04-24 22:53 40.23819 -85.37073 14428 ft 382 kts 263°
2026-04-24 22:53 40.23289 -85.40383 13920 ft 372 kts 246°
2026-04-24 22:54 40.22141 -85.43360 13599 ft 363 kts 239°
2026-04-24 22:54 40.20873 -85.46230 13256 ft 367 kts 238°
2026-04-24 22:54 40.19583 -85.49125 12917 ft 368 kts 238°
2026-04-24 22:54 40.18324 -85.51977 12574 ft 352 kts 239°
2026-04-24 22:55 40.17135 -85.54709 12272 ft 340 kts 239°
2026-04-24 22:55 40.15981 -85.57373 11973 ft 330 kts 239°
2026-04-24 22:55 40.14868 -85.59948 11694 ft 319 kts 239°
2026-04-24 22:55 40.13809 -85.62399 11509 ft 302 kts 239°
2026-04-24 22:56 40.12795 -85.64767 11104 ft 294 kts 239°
2026-04-24 22:56 40.11821 -85.67048 10797 ft 283 kts 239°
2026-04-24 22:56 40.10879 -85.69257 10487 ft 274 kts 239°
2026-04-24 22:56 40.09965 -85.71396 10200 ft 265 kts 239°
2026-04-24 22:57 40.09081 -85.73462 9920 ft 258 kts 239°
2026-04-24 22:57 40.08209 -85.75496 9643 ft 256 kts 239°
2026-04-24 22:57 40.07342 -85.77518 9326 ft 254 kts 238°
2026-04-24 22:57 40.06481 -85.79524 9037 ft 252 kts 238°
2026-04-24 22:58 40.05632 -85.81480 8769 ft 249 kts 237°
2026-04-24 22:58 40.04720 -85.83388 8486 ft 247 kts 236°
2026-04-24 22:58 40.03802 -85.85268 8234 ft 244 kts 236°
2026-04-24 22:58 40.02880 -85.87119 7979 ft 242 kts 232°
2026-04-24 22:59 40.01793 -85.88759 7765 ft 237 kts 225°
2026-04-24 22:59 40.00647 -85.90296 7552 ft 236 kts 225°
2026-04-24 22:59 39.98323 -85.93393 7113 ft 241 kts 225°
2026-04-24 23:00 39.97156 -85.94963 6903 ft 242 kts 225°
2026-04-24 23:00 39.95986 -85.96543 6666 ft 241 kts 225°
2026-04-24 23:00 39.94822 -85.98122 6421 ft 242 kts 226°
2026-04-24 23:00 39.93661 -85.99699 6229 ft 241 kts 226°
2026-04-24 23:01 39.92503 -86.01274 5983 ft 239 kts 226°
2026-04-24 23:01 39.91370 -86.02818 5760 ft 232 kts 226°
2026-04-24 23:01 39.90271 -86.04312 5540 ft 224 kts 226°
2026-04-24 23:01 39.89212 -86.05751 5327 ft 216 kts 226°
2026-04-24 23:02 39.88175 -86.07145 5137 ft 212 kts 225°
2026-04-24 23:02 39.87144 -86.08511 4896 ft 211 kts 225°
2026-04-24 23:02 39.86122 -86.09855 4644 ft 205 kts 225°
2026-04-24 23:02 39.85139 -86.11123 4370 ft 198 kts 225°
2026-04-24 23:03 39.84173 -86.12359 4104 ft 191 kts 224°
2026-04-24 23:03 39.83248 -86.13541 3867 ft 181 kts 224°
2026-04-24 23:03 39.82375 -86.14655 3628 ft 171 kts 226°
2026-04-24 23:03 39.81539 -86.15726 3403 ft 166 kts 225°
2026-04-24 23:04 39.80728 -86.16760 3198 ft 160 kts 225°
2026-04-24 23:04 39.79946 -86.17758 2999 ft 153 kts 225°
2026-04-24 23:04 39.79200 -86.18712 2785 ft 150 kts 225°
2026-04-24 23:04 39.78479 -86.19633 2614 ft 142 kts 227°
2026-04-24 23:05 39.77770 -86.20541 2428 ft 146 kts 227°
2026-04-24 23:05 39.77038 -86.21478 2228 ft 149 kts 227°
2026-04-24 23:05 39.76303 -86.22417 2035 ft 148 kts 227°
2026-04-24 23:05 39.75572 -86.23352 1833 ft 147 kts 227°
2026-04-24 23:06 39.74824 -86.24308 1631 ft 153 kts 228°
2026-04-24 23:06 39.74076 -86.25266 1433 ft 152 kts 230°
2026-04-24 23:06 39.73318 -86.26235 1214 ft 154 kts 229°
2026-04-24 23:06 39.72550 -86.27220 964 ft 155 kts 229°
2026-04-24 23:07 39.71786 -86.28196 790 ft 153 kts 228°
2026-04-24 23:07 39.71111 -86.29051 780 ft 108 kts 226°
2026-04-24 23:07 39.70731 -86.29543 781 ft 46 kts 225°
2026-04-24 23:07 39.70564 -86.29660 782 ft 23 kts 185°
2026-04-24 23:08 39.70436 -86.29673 780 ft 16 kts 127°
2026-04-24 23:08 39.70486 -86.29555 780 ft 16 kts 39°
2026-04-24 23:08 39.70578 -86.29487 780 ft 15 kts 18°
2026-04-24 23:08 39.70666 -86.29422 781 ft 14 kts 43°
2026-04-24 23:09 39.70736 -86.29332 780 ft 14 kts 42°
2026-04-24 23:09 39.70804 -86.29251 780 ft 13 kts 42°
2026-04-24 23:09 39.70864 -86.29171 780 ft 13 kts 45°
2026-04-24 23:09 39.70928 -86.29093 780 ft 12 kts 44°
2026-04-24 23:10 39.70989 -86.29015 780 ft 12 kts 44°
2026-04-24 23:10 39.71048 -86.28938 781 ft 13 kts 45°
2026-04-24 23:10 39.71117 -86.28851 781 ft 15 kts 44°
2026-04-24 23:10 39.71200 -86.28746 781 ft 18 kts 44°
2026-04-24 23:11 39.71290 -86.28631 781 ft 18 kts 44°
2026-04-24 23:11 39.71378 -86.28520 780 ft 17 kts 44°
2026-04-24 23:11 39.71460 -86.28411 780 ft 16 kts 58°
2026-04-24 23:11 39.71422 -86.28289 780 ft 15 kts 120°
2026-04-24 23:12 39.71443 -86.28169 780 ft 15 kts 45°
2026-04-24 23:12 39.71486 -86.28115 780 ft 2 kts 50°
2026-04-24 23:12 39.71482 -86.28107 780 ft 1 kts 134°
2026-04-24 23:12 39.71467 -86.28090 780 ft 6 kts 137°
2026-04-24 23:13 39.71438 -86.28053 780 ft 3 kts 135°
2026-04-24 23:13 39.71436 -86.28050 780 ft 0 kts 135°